Weather History for Danville, VA

Change the Weather History Date:

Thursday, March 13, 2014

  Actual Average Record
Temperature  
Mean Temperature 37 °F 48 °F  
Max Temperature 42 °F 58 °F 91 °F (1990)
Min Temperature 30 °F 37 °F 18 °F (1998)
Degree Days  
Heating Degree Days 28 17  
Month to date heating degree days 250  
Since 1 July heating degree days 3251  
Cooling Degree Days 0 0  
Month to date cooling degree days 0  
Year to date cooling degree days 0  
Moisture  
Dew Point 12 °F    
Average Humidity 36    
Maximum Humidity 52    
Minimum Humidity 23    
Precipitation  
Precipitation 0.00 in 0.11 in 1.64 in (1951)
Month to date precipitation 1.42  
Year to date precipitation 7.85  
Snow  
Snow 0.00 in - - ()
Month to date snowfall  
Since 1 July snowfall  
Snow Depth -    
Sea Level Pressure  
Sea Level Pressure 29.98 in    
Wind  
Wind Speed 14 mph (NW)    
Max Wind Speed 23 mph    
Max Gust Speed 34 mph    
Visibility 10 miles    
Events      
T = Trace of Precipitation, MM = Missing Value Source: NWS Daily Summary

Daily Weather History Graph

Daily Weather History Graph

Search for Another Location

Airport:

Trip Planner

Search our weather history database for the weather conditions in past years. The results will help you decide how hot, cold, wet, or windy it might be!

Date:

Astronomy

Mar. 13, 2014 Rise Set
Actual Time 7:31 AM EDT 7:22 PM EDT
Civil Twilight 7:05 AM EDT 7:48 PM EDT
Nautical Twilight 6:35 AM EDT 8:18 PM EDT
Astronomical Twilight 6:05 AM EDT 8:48 PM EDT
Moon 4:50 PM EDT (3/13) 5:33 AM EDT (3/13)
Length of Visible Light 12h 43m
Length of Day
11h 51m
Waxing Gibbous, 91% of the Moon is Illuminated
Mar 13
Waxing Gibbous
Mar 16
Full
Mar 23
Last Quarter
Mar 30
New
Apr 7
First Quarter

Hourly Weather History & Observations

Time (EDT) Temp. Windchill Dew Point Humidity Pressure Visibility Wind Dir Wind Speed Gust Speed Precip Events Conditions
12:53 AM 39.9 °F 30.5 °F 21.0 °F 47% 29.66 in 10.0 mi WNW 19.6 mph 27.6 mph N/A   Mostly Cloudy
1:53 AM 39.0 °F 31.0 °F 21.9 °F 50% 29.69 in 10.0 mi WNW 13.8 mph 25.3 mph N/A   Overcast
2:53 AM 37.0 °F 28.1 °F 17.1 °F 44% 29.71 in 10.0 mi WNW 15.0 mph 28.8 mph N/A   Clear
3:53 AM 35.1 °F 25.5 °F 15.1 °F 44% 29.74 in 10.0 mi NW 15.0 mph 28.8 mph N/A   Clear
4:53 AM 34.0 °F 26.0 °F 14.0 °F 44% 29.76 in 10.0 mi WNW 10.4 mph 23.0 mph N/A   Scattered Clouds
5:53 AM 33.1 °F 26.9 °F 14.0 °F 46% 29.80 in 10.0 mi NNW 6.9 mph - N/A   Mostly Cloudy
6:53 AM 33.1 °F 23.4 °F 14.0 °F 46% 29.83 in 10.0 mi NNW 13.8 mph 20.7 mph N/A   Mostly Cloudy
7:53 AM 32.0 °F 23.6 °F 12.9 °F 45% 29.88 in 10.0 mi NW 10.4 mph 23.0 mph N/A   Clear
8:53 AM 33.1 °F 20.6 °F 8.1 °F 35% 29.93 in 10.0 mi NW 23.0 mph 32.2 mph N/A   Clear
9:53 AM 33.1 °F 21.5 °F 9.0 °F 37% 29.97 in 10.0 mi NW 19.6 mph 34.5 mph N/A   Clear
10:53 AM 35.1 °F 25.5 °F 10.9 °F 37% 29.99 in 10.0 mi WNW 15.0 mph 23.0 mph N/A   Clear
11:53 AM 36.0 °F 26.7 °F 10.0 °F 34% 30.02 in 10.0 mi NW 15.0 mph 27.6 mph N/A   Clear
12:53 PM 37.9 °F 28.5 °F 10.9 °F 33% 30.04 in 10.0 mi NW 17.3 mph 32.2 mph N/A   Clear
1:53 PM 37.9 °F 28.5 °F 10.0 °F 32% 30.05 in 10.0 mi NW 17.3 mph 21.9 mph N/A   Clear
2:53 PM 41.0 °F 32.8 °F 12.9 °F 32% 30.04 in 10.0 mi NW 16.1 mph 25.3 mph N/A   Clear
3:53 PM 41.0 °F 33.1 °F 10.9 °F 29% 30.06 in 10.0 mi NW 15.0 mph 23.0 mph N/A   Clear
4:27 PM 41.0 °F 36.4 °F 8.1 °F 26% 30.07 in 10.0 mi Variable 6.9 mph 21.9 mph N/A   Clear
4:53 PM 41.0 °F 36.4 °F 6.1 °F 24% 30.06 in 10.0 mi WNW 6.9 mph 21.9 mph N/A   Clear
5:53 PM 42.1 °F 36.6 °F 7.0 °F 24% 30.07 in 10.0 mi NW 9.2 mph 17.3 mph N/A   Clear
6:53 PM 41.0 °F 35.8 °F 5.0 °F 23% 30.11 in 10.0 mi NW 8.1 mph - N/A   Clear
7:53 PM 39.0 °F 35.7 °F 6.1 °F 26% 30.14 in 10.0 mi WNW 4.6 mph - N/A   Clear
8:53 PM 37.9 °F 32.1 °F 10.0 °F 32% 30.16 in 10.0 mi West 8.1 mph - N/A   Clear
9:53 PM 37.0 °F 31.6 °F 9.0 °F 31% 30.19 in 10.0 mi WNW 6.9 mph - N/A   Clear
10:53 PM 35.1 °F 29.3 °F 10.0 °F 35% 30.21 in 10.0 mi NW 6.9 mph - N/A   Clear
11:53 PM 30.9 °F 27.5 °F 15.1 °F 52% 30.22 in 10.0 mi WNW 3.5 mph - N/A   Clear